Winona, MN

4:49 PM CDT on July 24, 2017 (GMT -0500)
Winona Municipal-Conrad

Weather History for KONA - January, 2013

Change the Weather History Date:

Thursday, January 3, 2013

  Actual Average Record
Temperature  
Mean Temperature 16 °F -  
Max Temperature 21 °F 30 °F 48 °F (1998)
Min Temperature 10 °F 16 °F -9 °F (2014)
Degree Days  
Heating Degree Days 50    
Moisture  
Dew Point 10 °F    
Average Humidity 74    
Maximum Humidity 93    
Minimum Humidity 62    
Precipitation  
Precipitation 0.00 in - - ()
Sea Level Pressure  
Sea Level Pressure 30.20 in    
Wind  
Wind Speed 4 mph (WNW)    
Max Wind Speed 10 mph    
Max Gust Speed 16 mph    
Visibility 9 miles    
Events Snow    
Averages and records for this station are not official NWS values.
T = Trace of Precipitation, MM = Missing Value Source: NWS Daily Summary

Daily Weather History Graph

Daily Weather History Graph

Search for Another Location

Airport or City:

Trip Planner

Search our weather history database for the weather conditions in past years. The results will help you decide how hot, cold, wet, or windy it might be!

Date:

Astronomy

Jan. 03, 2013 Rise Set
Actual Time 7:41 AM CST 4:41 PM CST
Civil Twilight 7:09 AM CST 5:14 PM CST
Nautical Twilight 6:32 AM CST 5:50 PM CST
Astronomical Twilight 5:57 AM CST 6:25 PM CST
Moon 11:32 PM CST (1/3) 10:39 AM CST (1/3)
Length of Visible Light 10h 05m
Length of Day
8h 59m
Waning Gibbous, 65% of the Moon is Illuminated
Jan 3
Waning Gibbous
Jan 4
Last Quarter
Jan 11
New
Jan 18
First Quarter
Jan 26
Full

Hourly Weather History & Observations

Time (CST) Temp. Windchill Dew Point Humidity Pressure Visibility Wind Dir Wind Speed Gust Speed Precip Events Conditions
12:14 AM 19.4 °F - 14.0 °F 80% 30.09 in 7.0 mi Calm Calm - N/A   Overcast
12:34 AM 19.4 °F 14.3 °F 14.0 °F 80% 30.08 in 5.0 mi NNW 3.5 mph - N/A   Haze
12:53 AM 19.4 °F - 14.0 °F 80% 30.08 in 5.0 mi Calm Calm - N/A   Overcast
1:14 AM 19.4 °F - 14.0 °F 80% 30.08 in 5.0 mi Calm Calm - N/A   Overcast
2:14 AM 19.4 °F - 14.0 °F 80% 30.10 in 5.0 mi Calm Calm - N/A   Overcast
2:34 AM 19.4 °F - 14.0 °F 80% 30.10 in 5.0 mi Calm Calm - N/A   Overcast
2:53 AM 19.4 °F - 14.0 °F 80% 30.10 in 5.0 mi Calm Calm - N/A   Overcast
3:14 AM 19.4 °F - 14.0 °F 80% 30.10 in 5.0 mi Calm Calm - N/A   Overcast
3:34 AM 19.4 °F - 14.0 °F 80% 30.11 in 5.0 mi Calm Calm - N/A   Overcast
3:53 AM 19.4 °F - 14.0 °F 80% 30.11 in 5.0 mi Calm Calm - N/A   Overcast
4:14 AM 19.4 °F - 15.8 °F 86% 30.11 in 4.0 mi Calm Calm - N/A   Overcast
4:33 AM 19.4 °F - 15.8 °F 86% 30.11 in 4.0 mi Calm Calm - N/A   Overcast
4:54 AM 19.4 °F 14.3 °F 17.6 °F 93% 30.12 in 5.0 mi NNW 3.5 mph - N/A   Overcast
5:14 AM 21.2 °F 10.9 °F 17.6 °F 86% 30.13 in 7.0 mi WNW 9.2 mph - N/A   Overcast
5:33 AM 21.2 °F 10.9 °F 15.8 °F 80% 30.13 in 10.0 mi WNW 9.2 mph - N/A   Overcast
5:54 AM 19.4 °F 8.6 °F 14.0 °F 80% 30.14 in 10.0 mi WNW 9.2 mph - N/A Snow Light Snow
6:14 AM 19.4 °F 7.9 °F 14.0 °F 80% 30.15 in 7.0 mi WNW 10.4 mph - N/A Snow Light Snow
6:33 AM 19.4 °F 8.6 °F 14.0 °F 80% 30.16 in 10.0 mi WNW 9.2 mph - N/A   Overcast
6:54 AM 19.4 °F 7.9 °F 12.2 °F 74% 30.17 in 10.0 mi WNW 10.4 mph - N/A   Overcast
7:14 AM 19.4 °F 8.6 °F 12.2 °F 74% 30.18 in 10.0 mi WNW 9.2 mph - N/A   Overcast
7:33 AM 19.4 °F 11.5 °F 12.2 °F 74% 30.18 in 7.0 mi WNW 5.8 mph - N/A Snow Light Snow
7:54 AM 19.4 °F 10.4 °F 12.2 °F 74% 30.19 in 7.0 mi WNW 6.9 mph - N/A Snow Light Snow
8:14 AM 19.4 °F 11.5 °F 12.2 °F 74% 30.20 in 10.0 mi West 5.8 mph - N/A Snow Light Snow
8:33 AM 19.4 °F 8.6 °F 12.2 °F 74% 30.21 in 10.0 mi WNW 9.2 mph 16.1 mph N/A   Overcast
8:54 AM 19.4 °F 9.5 °F 12.2 °F 74% 30.22 in 7.0 mi WNW 8.1 mph - N/A Snow Light Snow
9:33 AM 19.4 °F 10.4 °F 12.2 °F 74% 30.22 in 7.0 mi WNW 6.9 mph - N/A Snow Light Snow
9:54 AM 19.4 °F 10.4 °F 12.2 °F 74% 30.23 in 10.0 mi WNW 6.9 mph - N/A   Overcast
10:14 AM 19.4 °F 11.5 °F 10.4 °F 68% 30.24 in 10.0 mi WNW 5.8 mph - N/A   Overcast
10:33 AM 19.4 °F 12.8 °F 10.4 °F 68% 30.24 in 10.0 mi West 4.6 mph - N/A   Overcast
10:54 AM 19.4 °F 9.5 °F 10.4 °F 68% 30.24 in 10.0 mi West 8.1 mph - N/A   Mostly Cloudy
11:14 AM 19.4 °F 8.6 °F 10.4 °F 68% 30.24 in 10.0 mi West 9.2 mph - N/A   Mostly Cloudy
11:33 AM 19.4 °F 10.4 °F 10.4 °F 68% 30.23 in 10.0 mi West 6.9 mph - N/A   Overcast
11:54 AM 19.4 °F 10.4 °F 10.4 °F 68% 30.23 in 10.0 mi West 6.9 mph - N/A   Overcast
12:14 PM 19.4 °F 8.6 °F 10.4 °F 68% 30.23 in 10.0 mi West 9.2 mph - N/A   Overcast
12:33 PM 19.4 °F 9.5 °F 10.4 °F 68% 30.23 in 10.0 mi West 8.1 mph - N/A   Overcast
12:54 PM 19.4 °F 8.6 °F 10.4 °F 68% 30.22 in 10.0 mi WNW 9.2 mph - N/A   Overcast
1:14 PM 19.4 °F 9.5 °F 10.4 °F 68% 30.23 in 10.0 mi WNW 8.1 mph - N/A   Overcast
1:33 PM 19.4 °F 9.5 °F 8.6 °F 63% 30.23 in 10.0 mi West 8.1 mph - N/A   Mostly Cloudy
1:54 PM 19.4 °F 11.5 °F 8.6 °F 63% 30.23 in 10.0 mi West 5.8 mph - N/A   Mostly Cloudy
2:14 PM 19.4 °F 7.9 °F 8.6 °F 63% 30.23 in 10.0 mi WNW 10.4 mph - N/A   Scattered Clouds
2:33 PM 19.4 °F 9.5 °F 8.6 °F 63% 30.23 in 10.0 mi WNW 8.1 mph - N/A   Clear
2:54 PM 17.6 °F 8.2 °F 8.6 °F 68% 30.24 in 10.0 mi NW 6.9 mph - N/A   Clear
3:14 PM 19.4 °F 11.5 °F 8.6 °F 63% 30.24 in 10.0 mi West 5.8 mph - N/A   Clear
3:33 PM 17.6 °F 8.2 °F 6.8 °F 63% 30.24 in 10.0 mi WNW 6.9 mph - N/A   Clear
3:54 PM 15.8 °F 7.2 °F 5.0 °F 62% 30.25 in 10.0 mi WNW 5.8 mph - N/A   Clear
4:14 PM 14.0 °F 3.9 °F 5.0 °F 67% 30.25 in 10.0 mi WNW 6.9 mph - N/A   Clear
4:33 PM 14.0 °F 3.9 °F 5.0 °F 67% 30.26 in 10.0 mi WNW 6.9 mph - N/A   Clear
4:54 PM 14.0 °F 6.5 °F 5.0 °F 67% 30.26 in 10.0 mi West 4.6 mph - N/A   Clear
5:14 PM 14.0 °F 2.0 °F 5.0 °F 67% 30.27 in 10.0 mi WNW 9.2 mph - N/A   Clear
5:34 PM 14.0 °F 8.2 °F 5.0 °F 67% 30.27 in 10.0 mi West 3.5 mph - N/A   Clear
5:54 PM 10.4 °F -0.4 °F 3.2 °F 73% 30.28 in 10.0 mi WNW 6.9 mph - N/A   Clear
6:14 PM 10.4 °F - 3.2 °F 73% 30.27 in 10.0 mi Calm Calm - N/A   Clear
6:34 PM 10.4 °F 4.0 °F 3.2 °F 73% 30.27 in 10.0 mi West 3.5 mph - N/A   Clear
6:54 PM 10.4 °F 0.8 °F 3.2 °F 73% 30.27 in 10.0 mi West 5.8 mph - N/A   Clear
7:13 PM 10.4 °F 2.2 °F 3.2 °F 73% 30.27 in 10.0 mi West 4.6 mph - N/A   Clear
7:34 PM 10.4 °F - 3.2 °F 73% 30.27 in 10.0 mi Calm Calm - N/A   Clear
7:54 PM 10.4 °F 4.0 °F 3.2 °F 73% 30.26 in 10.0 mi WSW 3.5 mph - N/A   Clear
8:13 PM 10.4 °F - 3.2 °F 73% 30.25 in 10.0 mi Calm Calm - N/A   Clear
8:34 PM 10.4 °F 4.0 °F 3.2 °F 73% 30.24 in 10.0 mi NW 3.5 mph - N/A   Clear
8:54 PM 10.4 °F - 5.0 °F 79% 30.23 in 10.0 mi Calm Calm - N/A   Clear
9:13 PM 10.4 °F - 5.0 °F 79% 30.22 in 10.0 mi Calm Calm - N/A   Clear
9:34 PM 14.0 °F 8.2 °F 8.6 °F 79% 30.22 in 10.0 mi WSW 3.5 mph - N/A   Clear
9:54 PM 12.2 °F - 5.0 °F 73% 30.20 in 10.0 mi Calm Calm - N/A   Clear
10:14 PM 12.2 °F - 5.0 °F 73% 30.20 in 10.0 mi Calm Calm - N/A   Clear
10:34 PM 14.0 °F 8.2 °F 8.6 °F 79% 30.20 in 10.0 mi NW 3.5 mph - N/A   Clear
10:54 PM 12.2 °F - 6.8 °F 79% 30.20 in 10.0 mi Calm Calm - N/A   Clear
11:14 PM 14.0 °F - 8.6 °F 79% 30.19 in 10.0 mi Calm Calm - N/A   Clear
11:34 PM 12.2 °F - 6.8 °F 79% 30.19 in 10.0 mi Calm Calm - N/A   Clear
11:54 PM 10.4 °F - 5.0 °F 79% 30.18 in 10.0 mi Calm Calm - N/A   Clear